Home   Weather   Sutton Coldfield   Past weeks

Flag for United Kingdom Past Weather in Sutton Coldfield, England, United Kingdom — Yesterday and Last 2 Weeks

Now
50 °F

Partly sunny.


Feels Like: 44 °F
Forecast: 34 / 49 °F
Wind: 17 mph from Northwest

Location: Birmingham / Airport

Current Time: Apr 24, 2017 at 4:46:15 pm

Latest Report: Apr 24, 2017 at 4:20 pm


Visibility: N/A

Pressure: 29.92 "Hg

Humidity: 62%

Dew Point: 37 °F

Location of Sutton ColdfieldLocation

Past Weather in Sutton Coldfield — Graph

°F

Sutton Coldfield Temperature Yesterday

Maximum temperature yesterday: 59 °F (at 5:20 pm)
Minimum temperature yesterday: 32 °F (at 3:50 am)
Average temperature yesterday: 47 °F

High & Low Weather Summary for the Past Weeks

 TemperatureHumidityPressure
High72 °F (Apr 9, 3:20 pm)100% (Apr 12, 7:20 pm)30.63 "Hg (Apr 12, 7:20 pm)
Low32 °F (Apr 23, 3:50 am)35% (Apr 18, 5:50 pm)29.92 "Hg (Apr 14, 5:50 pm)
Average49 °F70%30.26 "Hg
* Reported Apr 9 3:20 pm — Apr 24 3:20 pm, Sutton Coldfield, Weather by CustomWeather, © 2017

Note: Actual official high and low records may vary slightly from our data, if they occured in-between our weather recording intervals... More about our weather records

Advertising

Sutton Coldfield Weather History for the Previous 24 Hours

Scroll right to see more
 ConditionsComfort  
Time TempWeatherWind HumidityBarometerVisibility
3:20 pm
Mon, Apr 24
48 °FBroken clouds.13 mph87%29.92 "HgN/A
2:50 pm48 °FPartly sunny.17 mph82%29.95 "HgN/A
2:20 pm52 °FScattered showers. Scattered clouds.12 mph72%29.95 "HgN/A
1:50 pm50 °FScattered showers. Broken clouds.9 mph94%29.95 "HgN/A
1:20 pm50 °FScattered showers. Broken clouds.8 mph82%29.95 "HgN/A
12:50 pm48 °FLight rain. Broken clouds.9 mph94%29.98 "HgN/A
12:20 pm52 °FScattered showers. Broken clouds.8 mph67%29.98 "HgN/A
11:50 am54 °FPartly sunny.8 mph67%29.98 "HgN/A
11:20 am52 °FPartly sunny.8 mph72%29.98 "HgN/A
10:50 am52 °FBroken clouds.8 mph72%30.01 "HgN/A
10:20 am52 °FScattered clouds.9 mph77%30.01 "HgN/A
9:50 am52 °FPartly sunny.9 mph77%30.01 "HgN/A
9:20 am52 °FPassing clouds.9 mph77%30.01 "HgN/A
8:50 am50 °FPartly sunny.6 mph88%30.01 "HgN/A
8:20 am48 °FScattered clouds.6 mph94%30.04 "HgN/A
7:50 am48 °FPassing clouds.6 mph94%30.04 "HgN/A
7:20 am48 °FPartly sunny.7 mph94%30.04 "HgN/A
6:50 am48 °FScattered showers. Partly sunny.8 mph94%30.04 "HgN/A
6:20 am48 °FPartly sunny.7 mph87%30.04 "HgN/A
5:50 am48 °FPassing clouds.7 mph76%30.04 "HgN/A
5:20 am48 °FClear.6 mph76%30.07 "Hg10 mi
4:50 am48 °FClear.6 mph76%30.07 "Hg10 mi
4:20 am48 °FPassing clouds.6 mph76%30.07 "HgN/A
3:50 am46 °FPassing clouds.6 mph82%30.09 "HgN/A
3:20 am48 °FPassing clouds.6 mph76%30.09 "HgN/A
2:50 am46 °FPassing clouds.5 mph82%30.09 "HgN/A
2:20 am45 °FClear.6 mph87%30.12 "Hg10 mi
1:50 am46 °FPassing clouds.6 mph82%30.12 "HgN/A
1:20 am39 °FClear.3 mph100%30.12 "Hg10 mi
12:50 am39 °FClear.3 mph100%30.12 "Hg10 mi
11:50 pm
Sun, Apr 23
41 °FClear.2 mph100%30.15 "Hg10 mi
11:20 pm43 °FClear.3 mph93%30.15 "Hg10 mi
10:50 pm43 °FClear.2 mph87%30.15 "Hg10 mi
10:20 pm45 °FClear.3 mph76%30.18 "Hg10 mi
9:50 pm48 °FClear.7 mph66%30.18 "Hg10 mi
9:20 pm50 °FClear.9 mph62%30.18 "Hg10 mi
8:50 pm50 °FClear.12 mph67%30.18 "Hg10 mi
7:50 pm57 °FPassing clouds.7 mph48%30.18 "HgN/A
7:20 pm57 °FPassing clouds.6 mph48%30.18 "HgN/A
6:50 pm59 °FScattered clouds.7 mph45%30.18 "HgN/A
6:20 pm59 °FScattered clouds.8 mph45%30.18 "HgN/A
5:50 pm59 °FScattered clouds.8 mph45%30.18 "HgN/A
5:20 pm59 °FScattered clouds.7 mph45%30.21 "HgN/A
4:50 pm57 °FPassing clouds.6 mph48%30.21 "HgN/A
4:20 pm57 °FPassing clouds.6 mph44%30.21 "HgN/A
Weather by CustomWeather, © 2017

See weather overviewHow to use our weather pages